Regional Weather Roundup
Issued by NWS

Home | Current Version | Previous Version | Graphics & Text | Print | Product List | Glossary On
Versions: 1 2 3 4 5 6 7 8 9 10 11 12 13 14 15 16 17 18 19 20 21 22 23 24 25 26 27 28 29 30 31 32 33 34 35 36 37 38 39 40 41 42 43 44 45 46 47 48 49 50
000
ASUS43 KLMK 190202
RWRKY
KENTUCKY REGIONAL WEATHER ROUNDUP
NATIONAL WEATHER SERVICE LOUISVILLE KY
1000 PM EDT WED OCT 18 2017

NOTE "FAIR" INDICATES FEW OR NO CLOUDS BELOW 12,000 FEET
WITH NO SIGNIFICANT WEATHER AND/OR OBSTRUCTIONS TO VISIBILITY.

KYZ001>023-026-027-061>063-070>075-190300-
WESTERN AND SOUTH CENTRAL KENTUCKY

CITY           SKY/WX    TMP DP  RH WIND       PRES   REMARKS
PADUCAH        CLEAR     55  46  71 S3        30.19R
HENDERSON      CLEAR     55  47  74 S5        30.20R
OWENSBORO      CLEAR     55  47  74 S3        30.20S
HOPKINSVILLE   CLEAR     60  47  61 S7        30.21S
BOWLING GREEN  CLEAR     53  47  79 CALM      30.23S
GLASGOW        NOT AVBL
$$

KYZ024-025-028>034-038-045-046-053-190300-
NORTH CENTRAL KENTUCKY

CITY           SKY/WX    TMP DP  RH WIND       PRES   REMARKS
LOUISVILLE/SDF CLEAR     58  48  69 S5        30.21S
LOUISVILLE/LOU CLEAR     56  47  71 S5        30.22S
FORT KNOX      CLEAR     53  45  74 CALM      30.20S
$$

KYZ035>037-039>044-047>052-055>060-089>105-190300-
NORTHEAST KENTUCKY

CITY           SKY/WX    TMP DP  RH WIND       PRES   REMARKS
LEXINGTON      CLEAR     56  45  66 S7        30.23F
COVINGTON      CLEAR     52  46  80 S7        30.20F
FRANKFORT      CLEAR     51  43  74 S3        30.21F
$$

KYZ054-064>069-076>088-106>120-190300-
SOUTHEAST KENTUCKY

CITY           SKY/WX    TMP DP  RH WIND       PRES   REMARKS
JACKSON        CLEAR     57  43  59 CALM      30.25F
LONDON         CLEAR     51  47  86 CALM      30.26S
SOMERSET       NOT AVBL
MIDDLESBORO    CLEAR     48  47  93 CALM      30.30R
MONTICELLO     CLEAR     44  42  93 W5        30.28S
$$





USA.gov is the U.S. government's official web portal to all federal, state and local government web resources and services.